Time,TemperatureF,DewpointF,PressureIn,WindDirection,WindDirectionDegrees,WindSpeedMPH,WindSpeedGustMPH,Humidity,HourlyPrecipIn,Conditions,Clouds,dailyrainin,SoftwareType,DateUTC
2013-05-14 00:01:00,65.1,55.9,30.22,WSW,250,0.0,0.0,72,0.00,,,0.00,meteohub,2013-05-14 04:01:00,
2013-05-14 00:02:00,65.1,55.9,30.22,WSW,250,0.0,0.0,72,0.00,,,0.00,meteohub,2013-05-14 04:02:00,
2013-05-14 00:03:00,65.1,55.9,30.22,WSW,250,0.0,0.0,72,0.00,,,0.00,meteohub,2013-05-14 04:03:00,
2013-05-14 00:07:00,65.1,55.9,30.22,WSW,250,0.0,0.0,72,0.00,,,0.00,meteohub,2013-05-14 04:07:00,
2013-05-14 00:12:00,65.1,55.9,30.22,WSW,250,0.0,0.0,72,0.00,,,0.00,meteohub,2013-05-14 04:12:00,
2013-05-14 00:17:00,65.1,56.3,30.22,WSW,250,0.0,0.0,73,0.00,,,0.00,meteohub,2013-05-14 04:17:00,
2013-05-14 00:22:00,65.1,56.3,30.22,WSW,250,0.0,0.0,73,0.00,,,0.00,meteohub,2013-05-14 04:22:00,
2013-05-14 00:27:00,64.8,55.9,30.22,WSW,250,0.0,0.0,73,0.00,,,0.00,meteohub,2013-05-14 04:27:00,
2013-05-14 00:32:00,64.6,56.1,30.22,WSW,250,0.0,0.0,74,0.00,,,0.00,meteohub,2013-05-14 04:32:00,
2013-05-14 00:37:00,64.4,55.9,30.21,WSW,250,0.0,0.0,74,0.00,,,0.00,meteohub,2013-05-14 04:37:00,
2013-05-14 00:42:00,64.2,55.8,30.21,WSW,250,0.0,0.0,74,0.00,,,0.00,meteohub,2013-05-14 04:42:00,
2013-05-14 00:47:00,64.2,56.1,30.21,WSW,250,0.0,0.0,75,0.00,,,0.00,meteohub,2013-05-14 04:47:00,
2013-05-14 00:52:00,64.2,56.1,30.21,WSW,250,0.0,0.0,75,0.00,,,0.00,meteohub,2013-05-14 04:52:00,
2013-05-14 00:57:00,64.0,55.9,30.22,WSW,250,0.0,0.0,75,0.00,,,0.00,meteohub,2013-05-14 04:57:00,
2013-05-14 01:02:00,63.9,56.1,30.21,WSW,250,0.0,0.0,76,0.00,,,0.00,meteohub,2013-05-14 05:02:00,
2013-05-14 01:07:00,63.5,56.1,30.21,WSW,250,0.0,0.0,77,0.00,,,0.00,meteohub,2013-05-14 05:07:00,
2013-05-14 01:12:00,63.1,56.1,30.22,WSW,250,0.0,0.0,78,0.00,,,0.00,meteohub,2013-05-14 05:12:00,
2013-05-14 01:17:00,63.0,56.3,30.22,WSW,250,0.0,0.0,79,0.00,,,0.00,meteohub,2013-05-14 05:17:00,
2013-05-14 01:22:00,62.8,56.1,30.22,WSW,250,0.0,0.0,79,0.00,,,0.00,meteohub,2013-05-14 05:22:00,
2013-05-14 01:27:00,62.8,56.1,30.22,WSW,250,0.0,0.0,79,0.00,,,0.00,meteohub,2013-05-14 05:27:00,
2013-05-14 01:32:00,62.4,55.8,30.22,WSW,250,0.0,0.0,79,0.00,,,0.00,meteohub,2013-05-14 05:32:00,
2013-05-14 01:37:00,62.4,56.1,30.22,WSW,250,0.0,0.0,80,0.00,,,0.00,meteohub,2013-05-14 05:37:00,
2013-05-14 01:42:00,62.2,55.9,30.22,WSW,250,0.0,0.0,80,0.00,,,0.00,meteohub,2013-05-14 05:42:00,
2013-05-14 01:47:00,62.2,56.3,30.22,WSW,250,0.0,0.0,81,0.00,,,0.00,meteohub,2013-05-14 05:47:00,
2013-05-14 01:52:00,62.1,56.1,30.22,WSW,250,0.0,0.0,81,0.00,,,0.00,meteohub,2013-05-14 05:52:00,
2013-05-14 01:57:00,62.1,56.5,30.22,WSW,250,0.0,0.0,82,0.00,,,0.00,meteohub,2013-05-14 05:57:00,
2013-05-14 02:02:00,61.9,56.3,30.22,WSW,250,0.0,0.0,82,0.00,,,0.00,meteohub,2013-05-14 06:02:00,
2013-05-14 02:07:00,61.5,55.9,30.22,WSW,250,0.0,0.0,82,0.00,,,0.00,meteohub,2013-05-14 06:07:00,
2013-05-14 02:12:00,61.3,55.8,30.22,WSW,250,0.0,0.0,82,0.00,,,0.00,meteohub,2013-05-14 06:12:00,
2013-05-14 02:17:00,61.2,55.9,30.21,WSW,250,0.0,0.0,83,0.00,,,0.00,meteohub,2013-05-14 06:17:00,
2013-05-14 02:22:00,61.0,55.8,30.21,WSW,250,0.0,0.0,83,0.00,,,0.00,meteohub,2013-05-14 06:22:00,
2013-05-14 02:27:00,60.8,55.9,30.21,WSW,250,0.0,0.0,84,0.00,,,0.00,meteohub,2013-05-14 06:27:00,
2013-05-14 02:32:00,60.8,55.9,30.21,WSW,250,0.0,0.0,84,0.00,,,0.00,meteohub,2013-05-14 06:32:00,
2013-05-14 02:37:00,60.6,55.8,30.21,WSW,250,0.0,0.0,84,0.00,,,0.00,meteohub,2013-05-14 06:37:00,
2013-05-14 02:42:00,60.4,55.9,30.21,WSW,250,0.0,0.0,85,0.00,,,0.00,meteohub,2013-05-14 06:42:00,
2013-05-14 02:47:00,60.4,55.9,30.21,WSW,250,0.0,0.0,85,0.00,,,0.00,meteohub,2013-05-14 06:47:00,
2013-05-14 02:52:00,60.4,55.9,30.21,WSW,250,0.0,0.0,85,0.00,,,0.00,meteohub,2013-05-14 06:52:00,
2013-05-14 02:57:00,60.3,55.8,30.21,WSW,250,0.0,0.0,85,0.00,,,0.00,meteohub,2013-05-14 06:57:00,
2013-05-14 03:02:00,60.3,56.1,30.21,WSW,250,0.0,0.0,86,0.00,,,0.00,meteohub,2013-05-14 07:02:00,
2013-05-14 03:07:00,60.1,55.9,30.21,WSW,250,0.0,0.0,86,0.00,,,0.00,meteohub,2013-05-14 07:07:00,
2013-05-14 03:12:00,60.1,55.9,30.21,WSW,250,0.0,0.0,86,0.00,,,0.00,meteohub,2013-05-14 07:12:00,
2013-05-14 03:17:00,60.1,55.9,30.21,WSW,250,0.0,0.0,86,0.00,,,0.00,meteohub,2013-05-14 07:17:00,
2013-05-14 03:22:00,60.1,55.9,30.21,WSW,250,0.0,0.0,86,0.00,,,0.00,meteohub,2013-05-14 07:22:00,
2013-05-14 03:27:00,59.9,55.8,30.21,WSW,250,0.0,0.0,86,0.00,,,0.00,meteohub,2013-05-14 07:27:00,
2013-05-14 03:32:00,59.7,55.8,30.21,WSW,250,0.0,0.0,87,0.00,,,0.00,meteohub,2013-05-14 07:32:00,
2013-05-14 03:37:00,59.7,55.8,30.21,WSW,250,0.0,0.0,87,0.00,,,0.00,meteohub,2013-05-14 07:37:00,
2013-05-14 03:42:00,59.5,55.6,30.20,WSW,250,0.0,0.0,87,0.00,,,0.00,meteohub,2013-05-14 07:42:00,
2013-05-14 03:47:00,59.5,55.6,30.21,WSW,250,0.0,0.0,87,0.00,,,0.00,meteohub,2013-05-14 07:47:00,
2013-05-14 03:52:00,59.5,55.6,30.20,WSW,250,0.0,0.0,87,0.00,,,0.00,meteohub,2013-05-14 07:52:00,
2013-05-14 03:57:00,59.5,55.6,30.21,WSW,250,0.0,0.0,87,0.00,,,0.00,meteohub,2013-05-14 07:57:00,
2013-05-14 04:02:00,59.5,55.9,30.20,WSW,250,0.0,0.0,88,0.00,,,0.00,meteohub,2013-05-14 08:02:00,
2013-05-14 04:07:00,59.4,55.8,30.21,WSW,250,0.0,0.0,88,0.00,,,0.00,meteohub,2013-05-14 08:07:00,
2013-05-14 04:12:00,59.2,55.6,30.21,WSW,250,0.0,0.0,88,0.01,,,0.01,meteohub,2013-05-14 08:12:00,
2013-05-14 04:17:00,59.0,55.4,30.21,WSW,250,0.0,0.0,88,0.01,,,0.01,meteohub,2013-05-14 08:17:00,
2013-05-14 04:22:00,58.8,55.6,30.20,WSW,250,0.0,0.0,89,0.01,,,0.01,meteohub,2013-05-14 08:22:00,
2013-05-14 04:27:00,58.6,55.4,30.20,WSW,250,0.0,0.0,89,0.01,,,0.01,meteohub,2013-05-14 08:27:00,
2013-05-14 04:32:00,58.6,55.4,30.21,WSW,250,0.0,0.0,89,0.01,,,0.01,meteohub,2013-05-14 08:32:00,
2013-05-14 04:37:00,58.5,55.2,30.21,WSW,250,0.0,0.0,89,0.01,,,0.01,meteohub,2013-05-14 08:37:00,
2013-05-14 04:42:00,58.5,55.2,30.21,WSW,250,0.0,0.0,89,0.01,,,0.01,meteohub,2013-05-14 08:42:00,
2013-05-14 04:47:00,58.3,55.4,30.21,WSW,250,0.0,0.0,90,0.01,,,0.01,meteohub,2013-05-14 08:47:00,
2013-05-14 04:52:00,58.3,55.4,30.21,WSW,250,0.0,0.0,90,0.01,,,0.01,meteohub,2013-05-14 08:52:00,
2013-05-14 04:57:00,58.3,55.4,30.21,WSW,250,0.0,0.0,90,0.01,,,0.01,meteohub,2013-05-14 08:57:00,
2013-05-14 05:02:00,58.3,55.4,30.21,WSW,250,0.0,0.0,90,0.01,,,0.01,meteohub,2013-05-14 09:02:00,
2013-05-14 05:07:00,58.3,55.4,30.21,WSW,250,0.0,0.0,90,0.01,,,0.01,meteohub,2013-05-14 09:07:00,
2013-05-14 05:12:00,58.3,55.4,30.21,WSW,250,0.0,0.0,90,0.00,,,0.01,meteohub,2013-05-14 09:12:00,
2013-05-14 05:17:00,58.1,55.2,30.21,WSW,250,0.0,0.0,90,0.00,,,0.01,meteohub,2013-05-14 09:17:00,
2013-05-14 05:22:00,58.1,55.2,30.21,WSW,250,0.0,0.0,90,0.00,,,0.01,meteohub,2013-05-14 09:22:00,
2013-05-14 05:27:00,57.9,55.2,30.21,WSW,250,0.0,0.0,91,0.00,,,0.01,meteohub,2013-05-14 09:27:00,
2013-05-14 05:32:00,57.9,55.2,30.21,WSW,250,0.0,0.0,91,0.00,,,0.01,meteohub,2013-05-14 09:32:00,
2013-05-14 05:37:00,57.9,55.2,30.21,WSW,250,0.0,0.0,91,0.00,,,0.01,meteohub,2013-05-14 09:37:00,
2013-05-14 05:42:00,57.7,55.2,30.21,WSW,250,0.0,0.0,91,0.00,,,0.01,meteohub,2013-05-14 09:42:00,
2013-05-14 05:47:00,57.7,55.2,30.21,WSW,250,0.0,0.0,91,0.00,,,0.01,meteohub,2013-05-14 09:47:00,
2013-05-14 05:52:00,57.7,55.2,30.21,WSW,250,0.0,0.0,91,0.00,,,0.01,meteohub,2013-05-14 09:52:00,
2013-05-14 05:57:00,57.6,55.0,30.21,WSW,250,0.0,0.0,91,0.00,,,0.01,meteohub,2013-05-14 09:57:00,
2013-05-14 06:02:00,57.6,55.0,30.21,WSW,250,0.0,0.0,91,0.00,,,0.01,meteohub,2013-05-14 10:02:00,
2013-05-14 06:07:00,57.6,55.0,30.21,WSW,250,0.0,0.0,91,0.00,,,0.01,meteohub,2013-05-14 10:07:00,
2013-05-14 06:12:00,57.4,55.0,30.21,WSW,250,0.0,0.0,92,0.00,,,0.01,meteohub,2013-05-14 10:12:00,
2013-05-14 06:17:00,57.4,55.0,30.21,WSW,250,0.0,0.0,92,0.00,,,0.01,meteohub,2013-05-14 10:17:00,
2013-05-14 06:22:00,57.4,55.0,30.22,WSW,250,0.0,0.0,92,0.00,,,0.01,meteohub,2013-05-14 10:22:00,
2013-05-14 06:27:00,57.4,55.0,30.22,WSW,250,0.0,0.0,92,0.00,,,0.01,meteohub,2013-05-14 10:27:00,
2013-05-14 06:32:00,57.2,54.9,30.21,WSW,250,0.0,0.0,92,0.00,,,0.01,meteohub,2013-05-14 10:32:00,
2013-05-14 06:37:00,57.2,54.9,30.21,WSW,250,0.0,0.0,92,0.00,,,0.01,meteohub,2013-05-14 10:37:00,
2013-05-14 06:42:00,57.2,54.9,30.22,WSW,250,0.0,0.0,92,0.00,,,0.01,meteohub,2013-05-14 10:42:00,
2013-05-14 06:47:00,57.2,54.9,30.22,WSW,250,0.0,0.0,92,0.00,,,0.01,meteohub,2013-05-14 10:47:00,
2013-05-14 06:52:00,57.2,54.9,30.22,WSW,250,0.0,0.0,92,0.00,,,0.01,meteohub,2013-05-14 10:52:00,
2013-05-14 06:57:00,57.4,55.0,30.22,WSW,250,0.0,0.0,92,0.00,,,0.01,meteohub,2013-05-14 10:57:00,
2013-05-14 07:02:00,57.4,55.0,30.22,WSW,250,0.0,0.0,92,0.00,,,0.01,meteohub,2013-05-14 11:02:00,
2013-05-14 07:07:00,57.2,54.9,30.22,WSW,250,0.0,0.0,92,0.00,,,0.01,meteohub,2013-05-14 11:07:00,
2013-05-14 07:12:00,57.0,54.7,30.22,WSW,250,0.0,0.0,92,0.00,,,0.01,meteohub,2013-05-14 11:12:00,
2013-05-14 07:18:00,57.0,54.7,30.23,WSW,250,0.0,0.0,92,0.00,,,0.01,meteohub,2013-05-14 11:18:00,
2013-05-14 07:23:00,57.0,54.7,30.22,WSW,250,0.0,0.0,92,0.00,,,0.01,meteohub,2013-05-14 11:23:00,
2013-05-14 07:28:00,57.2,54.9,30.22,WSW,250,0.0,0.0,92,0.00,,,0.01,meteohub,2013-05-14 11:28:00,
2013-05-14 07:33:00,57.2,54.9,30.23,WSW,250,0.0,0.0,92,0.00,,,0.01,meteohub,2013-05-14 11:33:00,
2013-05-14 07:38:00,57.4,55.0,30.23,WSW,250,0.0,0.0,92,0.00,,,0.01,meteohub,2013-05-14 11:38:00,
2013-05-14 07:43:00,57.4,55.0,30.24,WSW,250,0.0,0.0,92,0.00,,,0.01,meteohub,2013-05-14 11:43:00,
2013-05-14 07:48:00,57.6,55.2,30.24,WSW,250,0.0,0.0,92,0.00,,,0.01,meteohub,2013-05-14 11:48:00,
2013-05-14 07:53:00,57.7,55.8,30.24,WSW,250,0.0,0.0,93,0.00,,,0.01,meteohub,2013-05-14 11:53:00,
2013-05-14 07:58:00,58.3,56.3,30.24,WSW,250,0.0,0.0,93,0.00,,,0.01,meteohub,2013-05-14 11:58:00,
2013-05-14 08:03:00,58.6,56.7,30.24,WSW,250,0.0,0.0,93,0.00,,,0.01,meteohub,2013-05-14 12:03:00,
2013-05-14 08:08:00,59.0,57.0,30.24,WSW,250,0.0,0.0,93,0.00,,,0.01,meteohub,2013-05-14 12:08:00,
2013-05-14 08:13:00,59.5,57.6,30.25,WSW,250,0.0,0.0,93,0.00,,,0.01,meteohub,2013-05-14 12:13:00,
2013-05-14 08:18:00,60.1,57.7,30.25,WSW,250,0.0,0.0,92,0.00,,,0.01,meteohub,2013-05-14 12:18:00,
2013-05-14 08:24:00,60.8,58.5,30.25,WSW,250,0.0,0.0,92,0.00,,,0.01,meteohub,2013-05-14 12:24:00,
2013-05-14 08:29:00,61.5,58.8,30.25,WSW,250,0.0,0.0,91,0.00,,,0.01,meteohub,2013-05-14 12:29:00,
2013-05-14 08:34:00,62.2,59.5,30.25,WSW,250,0.0,0.0,91,0.00,,,0.01,meteohub,2013-05-14 12:34:00,
2013-05-14 08:39:00,62.8,59.7,30.24,WSW,250,0.0,0.0,90,0.00,,,0.01,meteohub,2013-05-14 12:39:00,
2013-05-14 08:44:00,63.5,60.3,30.25,WSW,250,0.0,0.0,89,0.00,,,0.01,meteohub,2013-05-14 12:44:00,
2013-05-14 08:49:00,64.0,60.8,30.25,WSW,250,0.0,0.0,89,0.00,,,0.01,meteohub,2013-05-14 12:49:00,
2013-05-14 08:54:00,64.9,61.0,30.25,WSW,250,0.0,0.0,87,0.00,,,0.01,meteohub,2013-05-14 12:54:00,
2013-05-14 08:59:00,65.5,61.2,30.25,WSW,250,0.0,0.0,86,0.00,,,0.01,meteohub,2013-05-14 12:59:00,
2013-05-14 09:04:00,65.8,61.5,30.25,WSW,250,0.0,0.0,86,0.00,,,0.01,meteohub,2013-05-14 13:04:00,
2013-05-14 09:09:00,66.6,61.9,30.25,WSW,250,0.0,0.0,85,0.00,,,0.01,meteohub,2013-05-14 13:09:00,
2013-05-14 09:14:00,66.9,61.9,30.26,WSW,250,0.0,0.0,84,0.00,,,0.01,meteohub,2013-05-14 13:14:00,
2013-05-14 09:19:00,67.6,62.2,30.26,West,262,0.0,0.0,83,0.00,,,0.01,meteohub,2013-05-14 13:19:00,
2013-05-14 09:24:00,68.2,62.8,30.26,West,262,0.0,0.0,83,0.00,,,0.01,meteohub,2013-05-14 13:24:00,
2013-05-14 09:29:00,68.5,62.1,30.26,West,262,0.0,0.0,80,0.00,,,0.01,meteohub,2013-05-14 13:29:00,
2013-05-14 09:34:00,69.3,62.8,30.27,West,262,0.0,0.0,80,0.00,,,0.01,meteohub,2013-05-14 13:34:00,
2013-05-14 09:39:00,69.8,63.0,30.27,West,262,0.0,0.0,79,0.00,,,0.01,meteohub,2013-05-14 13:39:00,
2013-05-14 09:44:00,70.5,63.3,30.26,West,262,0.0,0.0,78,0.00,,,0.01,meteohub,2013-05-14 13:44:00,
2013-05-14 09:50:00,71.2,63.3,30.26,West,268,0.0,0.0,76,0.00,,,0.01,meteohub,2013-05-14 13:50:00,
2013-05-14 09:55:00,71.6,63.3,30.26,West,259,0.0,0.0,75,0.00,,,0.01,meteohub,2013-05-14 13:55:00,
2013-05-14 10:00:00,72.0,63.1,30.26,WSW,258,0.0,0.0,74,0.00,,,0.01,meteohub,2013-05-14 14:00:00,
2013-05-14 10:05:00,72.5,63.7,30.27,West,266,0.0,1.0,74,0.00,,,0.01,meteohub,2013-05-14 14:05:00,
2013-05-14 10:10:00,73.0,63.5,30.27,West,266,0.0,1.0,72,0.00,,,0.01,meteohub,2013-05-14 14:10:00,
2013-05-14 10:15:00,73.4,63.5,30.27,NNW,346,0.0,2.0,71,0.00,,,0.01,meteohub,2013-05-14 14:15:00,
2013-05-14 10:20:00,73.9,63.5,30.27,NNW,346,0.0,2.0,70,0.00,,,0.01,meteohub,2013-05-14 14:20:00,
2013-05-14 10:25:00,74.1,63.0,30.27,SSW,205,0.0,2.0,68,0.00,,,0.01,meteohub,2013-05-14 14:25:00,
2013-05-14 10:30:00,73.6,62.8,30.27,SSW,207,0.0,3.0,69,0.00,,,0.01,meteohub,2013-05-14 14:30:00,
2013-05-14 10:35:00,73.9,63.5,30.27,SSE,153,0.0,3.0,70,0.00,,,0.01,meteohub,2013-05-14 14:35:00,
2013-05-14 10:40:00,73.8,61.3,30.27,SSW,212,0.0,2.0,65,0.00,,,0.01,meteohub,2013-05-14 14:40:00,
2013-05-14 10:45:00,73.8,61.7,30.27,SW,229,0.0,3.0,66,0.00,,,0.01,meteohub,2013-05-14 14:45:00,
2013-05-14 10:50:00,73.9,61.9,30.27,South,179,0.0,3.0,66,0.00,,,0.01,meteohub,2013-05-14 14:50:00,
2013-05-14 10:56:00,74.5,62.8,30.27,North,5,0.0,6.0,67,0.00,,,0.01,meteohub,2013-05-14 14:56:00,
2013-05-14 11:01:00,75.6,62.6,30.27,WNW,300,0.0,6.0,64,0.00,,,0.01,meteohub,2013-05-14 15:01:00,
2013-05-14 11:06:00,76.3,61.9,30.27,WNW,300,0.0,1.0,61,0.00,,,0.01,meteohub,2013-05-14 15:06:00,
2013-05-14 11:11:00,76.5,62.1,30.27,SW,225,0.0,1.0,61,0.00,,,0.01,meteohub,2013-05-14 15:11:00,
2013-05-14 11:16:00,76.6,63.1,30.27,West,259,0.0,1.0,63,0.00,,,0.01,meteohub,2013-05-14 15:16:00,
2013-05-14 11:21:00,77.0,60.6,30.27,West,272,0.0,4.0,57,0.00,,,0.01,meteohub,2013-05-14 15:21:00,
2013-05-14 11:26:00,77.2,59.7,30.27,WSW,238,0.0,4.0,55,0.00,,,0.01,meteohub,2013-05-14 15:26:00,
2013-05-14 11:31:00,77.2,59.2,30.27,SSW,199,0.0,4.0,54,0.00,,,0.01,meteohub,2013-05-14 15:31:00,
2013-05-14 11:36:00,77.2,58.6,30.27,SSW,197,0.0,2.0,53,0.00,,,0.01,meteohub,2013-05-14 15:36:00,
2013-05-14 11:41:00,77.2,58.3,30.27,South,185,0.0,7.0,52,0.00,,,0.01,meteohub,2013-05-14 15:41:00,
2013-05-14 11:46:00,77.4,57.7,30.27,SE,136,0.0,7.0,51,0.00,,,0.01,meteohub,2013-05-14 15:46:00,
2013-05-14 11:51:00,77.7,58.6,30.28,WSW,240,6.0,7.0,52,0.00,,,0.01,meteohub,2013-05-14 15:51:00,
2013-05-14 11:56:00,77.7,57.6,30.27,SSE,154,8.0,8.0,50,0.00,,,0.01,meteohub,2013-05-14 15:56:00,
2013-05-14 12:01:00,77.7,57.0,30.27,South,176,6.0,9.0,49,0.00,,,0.01,meteohub,2013-05-14 16:01:00,
2013-05-14 12:06:00,78.1,57.4,30.27,SW,234,0.0,9.0,49,0.00,,,0.01,meteohub,2013-05-14 16:06:00,
2013-05-14 12:11:00,78.1,56.8,30.27,WSW,241,0.0,10.0,48,0.00,,,0.01,meteohub,2013-05-14 16:11:00,
2013-05-14 12:16:00,78.6,57.2,30.27,South,169,7.0,10.0,48,0.00,,,0.01,meteohub,2013-05-14 16:16:00,
2013-05-14 12:21:00,79.0,57.6,30.27,SW,223,7.0,10.0,48,0.00,,,0.01,meteohub,2013-05-14 16:21:00,
2013-05-14 12:26:00,78.6,57.2,30.28,SSW,209,8.0,14.0,48,0.00,,,0.01,meteohub,2013-05-14 16:26:00,
2013-05-14 12:32:00,79.0,58.1,30.27,SW,226,6.0,14.0,49,0.00,,,0.01,meteohub,2013-05-14 16:32:00,
2013-05-14 12:37:00,79.3,59.7,30.27,SW,233,0.0,14.0,51,0.00,,,0.01,meteohub,2013-05-14 16:37:00,
2013-05-14 12:42:00,80.2,59.9,30.27,WSW,244,0.0,10.0,50,0.00,,,0.01,meteohub,2013-05-14 16:42:00,
2013-05-14 12:47:00,80.2,58.8,30.27,WNW,298,0.0,8.0,48,0.00,,,0.01,meteohub,2013-05-14 16:47:00,
2013-05-14 12:52:00,80.6,59.7,30.27,NW,317,0.0,6.0,49,0.00,,,0.01,meteohub,2013-05-14 16:52:00,
2013-05-14 12:57:00,81.3,59.7,30.27,SW,227,0.0,6.0,48,0.00,,,0.01,meteohub,2013-05-14 16:57:00,
2013-05-14 13:02:00,81.3,59.2,30.27,West,271,0.0,5.0,47,0.00,,,0.01,meteohub,2013-05-14 17:02:00,
2013-05-14 13:07:00,81.7,59.5,30.27,West,263,0.0,5.0,47,0.00,,,0.01,meteohub,2013-05-14 17:07:00,
2013-05-14 13:12:00,81.9,58.5,30.26,SW,236,7.0,7.0,45,0.00,,,0.01,meteohub,2013-05-14 17:12:00,
2013-05-14 13:17:00,81.1,57.7,30.26,SW,228,0.0,9.0,45,0.00,,,0.01,meteohub,2013-05-14 17:17:00,
2013-05-14 13:22:00,81.1,59.0,30.26,SW,234,0.0,9.0,47,0.00,,,0.01,meteohub,2013-05-14 17:22:00,
2013-05-14 13:27:00,81.5,59.4,30.26,South,186,0.0,8.0,47,0.00,,,0.01,meteohub,2013-05-14 17:27:00,
2013-05-14 13:32:00,81.3,57.4,30.25,SSW,209,3.0,8.0,44,0.00,,,0.01,meteohub,2013-05-14 17:32:00,
2013-05-14 13:37:00,81.1,59.0,30.25,West,273,0.0,9.0,47,0.00,,,0.01,meteohub,2013-05-14 17:37:00,
2013-05-14 13:42:00,81.5,58.6,30.25,SW,227,4.0,9.0,46,0.00,,,0.01,meteohub,2013-05-14 17:42:00,
2013-05-14 13:47:00,81.3,59.2,30.25,South,180,4.0,10.0,47,0.00,,,0.01,meteohub,2013-05-14 17:47:00,
2013-05-14 13:52:00,81.0,58.3,30.25,WSW,247,0.0,10.0,46,0.00,,,0.01,meteohub,2013-05-14 17:52:00,
2013-05-14 13:57:00,81.3,56.1,30.25,SW,223,5.0,10.0,42,0.00,,,0.01,meteohub,2013-05-14 17:57:00,
2013-05-14 14:02:00,81.3,56.1,30.24,South,185,7.0,10.0,42,0.00,,,0.01,meteohub,2013-05-14 18:02:00,
2013-05-14 14:07:00,81.7,56.3,30.24,SW,226,0.0,9.0,42,0.00,,,0.01,meteohub,2013-05-14 18:07:00,
2013-05-14 14:12:00,82.0,57.4,30.23,SSE,167,0.0,9.0,43,0.00,,,0.01,meteohub,2013-05-14 18:12:00,
2013-05-14 14:17:00,81.9,57.2,30.23,SSE,168,9.0,9.0,43,0.00,,,0.01,meteohub,2013-05-14 18:17:00,
2013-05-14 14:22:00,81.9,56.5,30.23,South,171,0.0,11.0,42,0.00,,,0.01,meteohub,2013-05-14 18:22:00,
2013-05-14 14:27:00,82.0,55.9,30.23,SE,138,5.0,11.0,41,0.00,,,0.01,meteohub,2013-05-14 18:27:00,
2013-05-14 14:32:00,82.2,56.8,30.22,SSW,203,0.0,11.0,42,0.00,,,0.01,meteohub,2013-05-14 18:32:00,
2013-05-14 14:37:00,82.0,55.9,30.22,SSE,163,0.0,10.0,41,0.00,,,0.01,meteohub,2013-05-14 18:37:00,
2013-05-14 14:42:00,82.0,56.7,30.22,SSW,206,1.0,7.0,42,0.00,,,0.01,meteohub,2013-05-14 18:42:00,
2013-05-14 14:47:00,82.2,56.8,30.22,SSW,207,0.0,9.0,42,0.00,,,0.01,meteohub,2013-05-14 18:47:00,
2013-05-14 14:52:00,82.2,56.1,30.21,WNW,286,0.0,9.0,41,0.00,,,0.01,meteohub,2013-05-14 18:52:00,
2013-05-14 14:57:00,82.4,55.6,30.21,SSE,167,0.0,9.0,40,0.00,,,0.01,meteohub,2013-05-14 18:57:00,
2013-05-14 15:02:00,82.9,57.6,30.21,NW,306,0.0,5.0,42,0.00,,,0.01,meteohub,2013-05-14 19:02:00,
2013-05-14 15:07:00,83.7,56.8,30.20,SW,236,0.0,3.0,40,0.00,,,0.01,meteohub,2013-05-14 19:07:00,
2013-05-14 15:12:00,83.7,56.8,30.20,SW,219,0.0,8.0,40,0.00,,,0.01,meteohub,2013-05-14 19:12:00,
2013-05-14 15:17:00,83.3,55.8,30.19,ESE,118,6.0,8.0,39,0.00,,,0.01,meteohub,2013-05-14 19:17:00,
2013-05-14 15:22:00,83.1,57.0,30.20,West,279,0.0,8.0,41,0.00,,,0.01,meteohub,2013-05-14 19:22:00,
2013-05-14 15:27:00,83.8,57.0,30.19,South,184,0.0,8.0,40,0.00,,,0.01,meteohub,2013-05-14 19:27:00,
2013-05-14 15:32:00,84.4,57.4,30.19,WSW,250,0.0,8.0,40,0.00,,,0.01,meteohub,2013-05-14 19:32:00,
2013-05-14 15:37:00,85.1,56.7,30.19,NW,322,0.0,5.0,38,0.00,,,0.01,meteohub,2013-05-14 19:37:00,
2013-05-14 15:42:00,85.6,57.9,30.19,South,180,0.0,4.0,39,0.00,,,0.01,meteohub,2013-05-14 19:42:00,
2013-05-14 15:47:00,85.6,57.9,30.19,NW,307,0.0,1.0,39,0.00,,,0.01,meteohub,2013-05-14 19:47:00,
2013-05-14 15:52:00,86.0,57.4,30.18,WNW,288,0.0,5.0,38,0.00,,,0.01,meteohub,2013-05-14 19:52:00,
2013-05-14 15:57:00,86.4,57.7,30.19,NNW,338,0.0,5.0,38,0.00,,,0.01,meteohub,2013-05-14 19:57:00,
2013-05-14 16:02:00,86.5,57.9,30.18,WNW,299,0.0,1.0,38,0.00,,,0.01,meteohub,2013-05-14 20:02:00,
2013-05-14 16:07:00,86.7,58.8,30.18,WSW,244,0.0,6.0,39,0.00,,,0.01,meteohub,2013-05-14 20:07:00,
2013-05-14 16:12:00,86.9,58.3,30.18,South,178,0.0,6.0,38,0.00,,,0.01,meteohub,2013-05-14 20:12:00,
2013-05-14 16:17:00,86.5,58.6,30.18,SW,222,0.0,6.0,39,0.00,,,0.01,meteohub,2013-05-14 20:17:00,
2013-05-14 16:22:00,86.7,58.8,30.18,North,355,0.0,1.0,39,0.00,,,0.01,meteohub,2013-05-14 20:22:00,
2013-05-14 16:28:00,87.1,59.2,30.18,NNW,336,0.0,7.0,39,0.00,,,0.01,meteohub,2013-05-14 20:28:00,
2013-05-14 16:33:00,87.1,59.2,30.18,SW,228,0.0,11.0,39,0.00,,,0.01,meteohub,2013-05-14 20:33:00,
2013-05-14 16:38:00,87.1,59.2,30.17,NNW,347,0.0,11.0,39,0.00,,,0.01,meteohub,2013-05-14 20:38:00,
2013-05-14 16:43:00,87.4,57.2,30.17,WNW,290,0.0,11.0,36,0.00,,,0.01,meteohub,2013-05-14 20:43:00,
2013-05-14 16:48:00,87.4,55.6,30.17,NW,309,0.0,1.0,34,0.00,,,0.01,meteohub,2013-05-14 20:48:00,
2013-05-14 16:53:00,87.6,57.4,30.17,North,355,0.0,1.0,36,0.00,,,0.01,meteohub,2013-05-14 20:53:00,
2013-05-14 16:58:00,87.6,57.4,30.17,SE,137,0.0,4.0,36,0.00,,,0.01,meteohub,2013-05-14 20:58:00,
2013-05-14 17:03:00,87.4,57.9,30.17,WSW,243,0.0,4.0,37,0.00,,,0.01,meteohub,2013-05-14 21:03:00,
2013-05-14 17:08:00,87.4,56.5,30.17,West,261,0.0,4.0,35,0.00,,,0.01,meteohub,2013-05-14 21:08:00,
2013-05-14 17:13:00,87.3,57.0,30.17,WNW,302,4.0,4.0,36,0.00,,,0.01,meteohub,2013-05-14 21:13:00,
2013-05-14 17:18:00,87.3,57.0,30.17,SSE,165,0.0,8.0,36,0.00,,,0.01,meteohub,2013-05-14 21:18:00,
2013-05-14 17:23:00,87.3,57.0,30.16,SW,217,0.0,9.0,36,0.00,,,0.01,meteohub,2013-05-14 21:23:00,
2013-05-14 17:28:00,87.1,56.8,30.17,NNW,344,0.0,9.0,36,0.00,,,0.01,meteohub,2013-05-14 21:28:00,
2013-05-14 17:33:00,87.1,57.6,30.17,West,275,0.0,2.0,37,0.00,,,0.01,meteohub,2013-05-14 21:33:00,
2013-05-14 17:38:00,86.7,58.8,30.17,WSW,256,0.0,5.0,39,0.00,,,0.01,meteohub,2013-05-14 21:38:00,
2013-05-14 17:43:00,86.7,58.1,30.17,NNW,329,0.0,5.0,38,0.00,,,0.01,meteohub,2013-05-14 21:43:00,
2013-05-14 17:48:00,86.7,57.4,30.16,NNW,332,0.0,5.0,37,0.00,,,0.01,meteohub,2013-05-14 21:48:00,
2013-05-14 17:53:00,86.9,57.6,30.16,NNW,340,0.0,1.0,37,0.00,,,0.01,meteohub,2013-05-14 21:53:00,
2013-05-14 17:58:00,86.5,56.5,30.16,South,186,0.0,4.0,36,0.00,,,0.01,meteohub,2013-05-14 21:58:00,
2013-05-14 18:03:00,85.5,55.4,30.16,West,271,0.0,6.0,36,0.00,,,0.01,meteohub,2013-05-14 22:03:00,
2013-05-14 18:08:00,85.6,57.9,30.16,WNW,284,0.0,6.0,39,0.00,,,0.00,meteohub,2013-05-14 22:08:00,
2013-05-14 18:14:00,85.3,56.1,30.16,SW,226,0.0,6.0,37,0.00,,,0.00,meteohub,2013-05-14 22:14:00,
2013-05-14 18:19:00,85.1,55.9,30.16,SW,214,0.0,8.0,37,0.00,,,0.00,meteohub,2013-05-14 22:19:00,
2013-05-14 18:24:00,84.2,55.8,30.15,SSW,195,3.0,8.0,38,0.00,,,0.00,meteohub,2013-05-14 22:24:00,
2013-05-14 18:29:00,83.5,57.4,30.15,SW,230,5.0,8.0,41,0.00,,,0.00,meteohub,2013-05-14 22:29:00,
2013-05-14 18:34:00,82.9,58.1,30.15,SSW,213,0.0,7.0,43,0.00,,,0.00,meteohub,2013-05-14 22:34:00,
2013-05-14 18:39:00,82.9,58.8,30.16,SSW,213,0.0,7.0,44,0.00,,,0.00,meteohub,2013-05-14 22:39:00,
2013-05-14 18:44:00,83.5,59.4,30.16,West,269,0.0,6.0,44,0.00,,,0.00,meteohub,2013-05-14 22:44:00,
2013-05-14 18:49:00,83.5,58.6,30.15,SW,225,0.0,6.0,43,0.00,,,0.00,meteohub,2013-05-14 22:49:00,
2013-05-14 18:54:00,83.3,59.2,30.15,South,184,0.0,6.0,44,0.00,,,0.00,meteohub,2013-05-14 22:54:00,
2013-05-14 18:59:00,83.1,59.5,30.15,SSW,200,0.0,6.0,45,0.00,,,0.00,meteohub,2013-05-14 22:59:00,
2013-05-14 19:04:00,83.5,59.9,30.15,WSW,240,0.0,6.0,45,0.00,,,0.00,meteohub,2013-05-14 23:04:00,
2013-05-14 19:09:00,83.3,59.2,30.14,SW,219,0.0,6.0,44,0.00,,,0.00,meteohub,2013-05-14 23:09:00,
2013-05-14 19:14:00,83.5,58.6,30.15,WNW,293,0.0,5.0,43,0.00,,,0.00,meteohub,2013-05-14 23:14:00,
2013-05-14 19:19:00,83.8,59.5,30.15,WNW,291,0.0,6.0,44,0.00,,,0.00,meteohub,2013-05-14 23:19:00,
2013-05-14 19:25:00,84.0,59.7,30.15,SSW,209,0.0,6.0,44,0.00,,,0.00,meteohub,2013-05-14 23:25:00,
2013-05-14 19:30:00,83.1,59.5,30.15,SSW,212,0.0,6.0,45,0.00,,,0.00,meteohub,2013-05-14 23:30:00,
2013-05-14 19:35:00,82.9,59.4,30.15,WNW,282,1.0,3.0,45,0.00,,,0.00,meteohub,2013-05-14 23:35:00,
2013-05-14 19:40:00,82.8,59.9,30.14,West,262,0.0,3.0,46,0.00,,,0.00,meteohub,2013-05-14 23:40:00,
2013-05-14 19:45:00,82.6,59.7,30.14,West,263,0.0,5.0,46,0.00,,,0.00,meteohub,2013-05-14 23:45:00,
2013-05-14 19:50:00,82.6,59.7,30.14,West,264,0.0,1.0,46,0.00,,,0.00,meteohub,2013-05-14 23:50:00,
2013-05-14 19:55:00,82.6,59.7,30.14,West,264,0.0,1.0,46,0.00,,,0.00,meteohub,2013-05-14 23:55:00,
2013-05-14 20:00:00,82.2,59.9,30.15,West,264,0.0,1.0,47,0.00,,,0.00,meteohub,2013-05-15 00:00:00,
2013-05-14 20:05:00,81.7,59.5,30.14,WSW,253,0.0,1.0,47,0.00,,,0.00,meteohub,2013-05-15 00:05:00,
2013-05-14 20:10:00,81.3,59.7,30.14,WSW,253,0.0,1.0,48,0.00,,,0.00,meteohub,2013-05-15 00:10:00,
2013-05-14 20:15:00,81.0,60.1,30.14,WSW,237,0.0,1.0,49,0.00,,,0.00,meteohub,2013-05-15 00:15:00,
2013-05-14 20:20:00,80.8,59.9,30.14,WSW,237,0.0,1.0,49,0.00,,,0.00,meteohub,2013-05-15 00:20:00,
2013-05-14 20:25:00,80.4,59.5,30.15,WSW,237,0.0,1.0,49,0.00,,,0.00,meteohub,2013-05-15 00:25:00,
2013-05-14 20:30:00,79.9,59.5,30.14,WSW,237,0.0,0.0,50,0.00,,,0.00,meteohub,2013-05-15 00:30:00,
2013-05-14 20:35:00,79.5,59.7,30.14,WSW,237,0.0,0.0,51,0.00,,,0.00,meteohub,2013-05-15 00:35:00,
2013-05-14 20:40:00,79.2,59.5,30.14,WSW,237,0.0,0.0,51,0.00,,,0.00,meteohub,2013-05-15 00:40:00,
2013-05-14 20:45:00,78.8,59.7,30.14,WSW,237,0.0,1.0,52,0.00,,,0.00,meteohub,2013-05-15 00:45:00,
2013-05-14 20:50:00,78.4,59.4,30.14,WSW,237,0.0,1.0,52,0.00,,,0.00,meteohub,2013-05-15 00:50:00,
2013-05-14 20:55:00,77.9,59.4,30.14,WSW,237,0.0,1.0,53,0.00,,,0.00,meteohub,2013-05-15 00:55:00,
2013-05-14 21:00:00,77.4,59.4,30.15,SSW,200,0.0,1.0,54,0.00,,,0.00,meteohub,2013-05-15 01:00:00,
2013-05-14 21:05:00,77.0,59.5,30.15,SSW,200,0.0,1.0,55,0.00,,,0.00,meteohub,2013-05-15 01:05:00,
2013-05-14 21:11:00,76.6,60.3,30.16,SSW,200,0.0,0.0,57,0.00,,,0.00,meteohub,2013-05-15 01:11:00,
2013-05-14 21:16:00,76.1,60.3,30.16,SSW,200,0.0,0.0,58,0.00,,,0.00,meteohub,2013-05-15 01:16:00,
2013-05-14 21:21:00,75.7,59.4,30.16,SSW,200,0.0,0.0,57,0.00,,,0.00,meteohub,2013-05-15 01:21:00,
2013-05-14 21:26:00,75.4,59.5,30.16,SSW,200,0.0,1.0,58,0.00,,,0.00,meteohub,2013-05-15 01:26:00,
2013-05-14 21:31:00,75.0,59.2,30.16,SSW,200,0.0,1.0,58,0.00,,,0.00,meteohub,2013-05-15 01:31:00,
2013-05-14 21:36:00,74.8,59.0,30.16,SSW,200,0.0,1.0,58,0.00,,,0.00,meteohub,2013-05-15 01:36:00,
2013-05-14 21:41:00,74.5,58.8,30.16,SSW,200,0.0,1.0,58,0.00,,,0.00,meteohub,2013-05-15 01:41:00,
2013-05-14 21:46:00,74.1,59.4,30.16,SSW,200,0.0,2.0,60,0.00,,,0.00,meteohub,2013-05-15 01:46:00,
2013-05-14 21:51:00,73.9,59.2,30.16,SSW,200,0.0,2.0,60,0.00,,,0.00,meteohub,2013-05-15 01:51:00,
2013-05-14 21:56:00,73.8,59.0,30.16,SSW,200,0.0,2.0,60,0.00,,,0.00,meteohub,2013-05-15 01:56:00,
2013-05-14 22:01:00,73.6,58.8,30.17,SSW,213,0.0,1.0,60,0.00,,,0.00,meteohub,2013-05-15 02:01:00,
2013-05-14 22:06:00,73.6,59.4,30.16,WNW,291,7.0,7.0,61,0.00,,,0.00,meteohub,2013-05-15 02:06:00,
2013-05-14 22:11:00,73.6,59.7,30.17,NNW,333,2.0,7.0,62,0.00,,,0.00,meteohub,2013-05-15 02:11:00,
2013-05-14 22:16:00,73.6,60.3,30.17,NW,320,0.0,7.0,63,0.00,,,0.00,meteohub,2013-05-15 02:16:00,
2013-05-14 22:21:00,73.2,60.3,30.17,WNW,293,0.0,7.0,64,0.00,,,0.00,meteohub,2013-05-15 02:21:00,
2013-05-14 22:26:00,73.2,60.8,30.17,NW,307,0.0,4.0,65,0.00,,,0.00,meteohub,2013-05-15 02:26:00,
2013-05-14 22:31:00,73.0,60.6,30.17,NW,307,0.0,4.0,65,0.00,,,0.00,meteohub,2013-05-15 02:31:00,
2013-05-14 22:37:00,72.9,60.8,30.17,NW,307,0.0,2.0,66,0.00,,,0.00,meteohub,2013-05-15 02:37:00,
2013-05-14 22:42:00,72.7,60.6,30.17,NW,307,0.0,0.0,66,0.00,,,0.00,meteohub,2013-05-15 02:42:00,
2013-05-14 22:47:00,72.3,60.8,30.18,NW,307,0.0,0.0,67,0.00,,,0.00,meteohub,2013-05-15 02:47:00,
2013-05-14 22:52:00,72.0,60.8,30.18,NW,307,0.0,0.0,68,0.00,,,0.00,meteohub,2013-05-15 02:52:00,
2013-05-14 22:57:00,71.6,60.8,30.18,NW,307,0.0,0.0,69,0.00,,,0.00,meteohub,2013-05-15 02:57:00,
2013-05-14 23:02:00,71.4,60.8,30.18,NW,307,0.0,0.0,69,0.00,,,0.00,meteohub,2013-05-15 03:02:00,
2013-05-14 23:07:00,71.2,61.0,30.19,NW,307,0.0,0.0,70,0.00,,,0.00,meteohub,2013-05-15 03:07:00,
2013-05-14 23:12:00,71.1,60.8,30.19,NW,307,0.0,1.0,70,0.00,,,0.00,meteohub,2013-05-15 03:12:00,
2013-05-14 23:17:00,70.9,61.0,30.19,NW,307,0.0,1.0,71,0.00,,,0.00,meteohub,2013-05-15 03:17:00,
2013-05-14 23:22:00,70.5,60.6,30.18,NW,307,0.0,1.0,71,0.00,,,0.00,meteohub,2013-05-15 03:22:00,
2013-05-14 23:27:00,70.3,60.8,30.18,NW,307,0.0,0.0,72,0.00,,,0.00,meteohub,2013-05-15 03:27:00,
2013-05-14 23:32:00,70.0,61.0,30.18,NW,307,0.0,0.0,73,0.00,,,0.00,meteohub,2013-05-15 03:32:00,
2013-05-14 23:37:00,69.6,61.0,30.18,NW,307,0.0,0.0,74,0.00,,,0.00,meteohub,2013-05-15 03:37:00,
2013-05-14 23:42:00,69.4,60.8,30.18,NW,307,0.0,0.0,74,0.00,,,0.00,meteohub,2013-05-15 03:42:00,
2013-05-14 23:47:00,69.1,60.8,30.18,NW,307,0.0,0.0,75,0.00,,,0.00,meteohub,2013-05-15 03:47:00,
2013-05-14 23:52:00,68.5,60.3,30.18,NW,307,0.0,0.0,75,0.00,,,0.00,meteohub,2013-05-15 03:52:00,
2013-05-14 23:57:00,68.2,60.3,30.18,NW,307,0.0,0.0,76,0.00,,,0.00,meteohub,2013-05-15 03:57:00,